RH
33 30 30 31 32 33 36 34 32 32 30 26 25 27 28 28 25 21 24 33 25 18 14 12 9 6 7 42 60 60 40 20 21 20 10 5 5 2 1 1 1 1 2 8 9
38 37 36 34 35 34 32 36 38 38 37 34 31 28 28 31 28 30 29 31 31 27 18 13 12 10 7 8 48 54 47 37 35 22 20 5 6 2 2 1 1 1 2 3 6
39 37 37 37 36 39 40 38 37 42 41 40 39 35 32 33 34 28 32 35 33 29 24 22 16 14 11 8 9 47 42 69 52 33 21 10 5 3 3 2 2 2 2 3 3
40 40 37 38 40 41 44 47 44 43 44 47 46 44 36 34 33 36 41 37 34 28 23 19 15 12 11 11 8 12 44 64 73 55 23 19 5 4 3 4 4 4 2 2 2
36 36 36 37 42 44 47 53 52 54 54 56 54 48 44 35 46 46 40 37 34 29 24 18 15 13 11 10 12 8 23 46 83 80 31 21 9 5 4 4 4 2 2 2 3
43 41 39 43 46 53 56 58 62 64 63 63 61 54 43 38 59 55 42 37 33 28 23 17 17 24 17 12 11 12 12 35 81 92 56 24 19 5 5 4 3 2 2 2 3
52 52 50 52 56 56 52 58 65 71 71 68 64 60 47 64 61 59 49 41 33 27 20 18 10 9 10 11 12 15 12 20 56 86 60 35 20 8 5 4 3 4 2 2 2
60 59 58 55 53 51 48 53 70 79 72 73 69 61 47 80 66 60 52 43 33 25 19 14 7 8 13 15 18 16 19 18 47 87 81 50 23 19 5 6 4 4 3 2 2
59 52 54 54 49 50 52 55 65 76 76 74 69 61 67 76 69 60 54 44 37 28 24 12 7 21 25 34 33 25 13 12 38 70 94 58 35 25 11 5 7 4 4 3 3
59 56 58 59 56 54 62 69 68 76 77 75 64 63 83 74 64 63 63 57 50 39 29 16 8 24 40 57 42 21 15 13 25 60 92 84 47 44 23 6 6 6 4 5 4
67 65 64 70 66 73 76 74 75 75 86 78 74 63 83 71 65 79 69 56 46 40 32 16 24 26 44 52 47 30 25 28 28 47 90 96 85 57 38 19 5 6 6 5 6
82 77 77 79 82 93 87 88 91 78 60 80 75 71 66 83 83 79 72 56 50 41 31 17 12 16 49 73 54 54 41 44 41 46 88 97 97 90 61 30 14 5 6 6 5
88 89 86 84 95 95 98 95 92 80 63 68 61 76 78 86 86 74 64 47 36 28 23 22 11 22 50 65 67 58 52 87 66 57 78 97 96 93 68 50 26 8 5 6 5
92 82 80 84 98 100 97 97 94 81 67 82 77 79 85 84 79 68 52 36 24 18 29 27 23 36 51 68 71 77 50 84 100 97 78 97 80 100 90 54 41 24 7 5 5
73 71 64 84 100 100 98 100 100 87 98 95 95 86 85 86 75 56 46 26 21 28 35 26 32 30 36 55 77 68 59 62 100 99 100 90 91 75 94 62 35 28 24 10 5
65 57 67 87 100 99 100 100 100 100 100 97 92 94 92 80 63 53 40 28 32 39 37 32 34 25 27 58 82 92 66 80 88 100 99 76 86 79 79 62 54 33 28 27 20
53 47 64 74 83 100 100 100 100 100 98 100 98 93 82 60 46 39 35 35 44 40 34 32 31 33 26 69 100 100 92 92 100 100 91 70 81 58 57 84 73 60 53 43 38
41 40 40 36 100 100 100 100 100 100 100 100 98 79 59 45 33 30 41 47 41 38 38 29 26 54 29 53 94 95 95 75 96 96 65 67 68 51 50 68 80 86 86 78 58
30 23 36 94 100 100 100 100 100 100 100 96 87 67 44 36 31 42 56 49 34 45 97 58 25 95 100 46 95 83 99 98 71 65 66 100 44 52 47 55 68 82 88 86 86
21 18 47 100 100 100 100 100 100 100 100 84 83 57 39 38 40 70 51 34 33 61 100 84 32 71 100 94 82 96 88 100 100 74 100 82 34 45 37 42 56 69 90 93 89
14 38 70 100 100 100 100 100 100 100 98 80 73 59 45 45 41 73 58 31 40 58 100 100 54 89 100 100 79 92 100 99 89 87 100 95 55 43 39 37 31 51 74 96 95
18 39 75 100 100 100 100 100 100 100 91 68 70 62 47 62 50 67 67 46 73 100 100 100 70 54 99 100 100 87 86 82 99 81 82 100 89 53 50 38 31 38 46 85 93
12 45 100 100 100 100 100 100 100 100 100 84 84 68 50 49 71 60 76 96 99 88 100 100 98 56 100 100 100 99 92 96 90 80 61 80 55 52 65 36 39 40 38 45 74
19 79 88 98 100 100 100 100 100 100 100 95 84 71 62 50 77 51 70 69 100 100 100 98 98 82 99 100 100 100 100 100 93 96 83 90 48 64 69 69 50 35 39 42 44
12 26 59 79 92 100 88 100 100 100 100 98 100 82 56 96 96 78 66 70 75 100 95 100 100 100 98 100 100 100 100 100 100 94 80 73 35 39 48 75 54 31 34 28 32
47 95 88 87 100 100 84 100 100 100 98 100 100 72 49 94 96 92 67 81 92 99 61 79 100 100 96 95 100 100 100 100 100 82 82 57 35 35 38 42 33 34 34 51 54
100 99 99 90 100 100 100 100 100 100 100 100 100 74 68 75 74 74 75 66 82 69 90 69 87 99 91 82 89 99 100 100 100 85 63 57 27 43 30 28 29 31 32 64 69
Wind_Speed
41 44 46 48 49 50 51 52 54 56 56 57 58 58 55 49 41 45 49 44 47 48 47 46 48 50 50 52 54 51 51 42 31 30 30 28 24 26 26 30 34 36 36 35 35
45 45 46 48 51 53 53 54 55 55 57 56 57 58 58 53 45 41 50 52 51 51 54 48 47 49 52 52 57 58 56 43 36 33 34 32 27 29 26 27 30 32 34 37 37
46 48 50 49 51 52 53 55 55 55 56 57 57 57 57 55 46 47 48 54 49 50 55 54 51 50 50 54 56 59 59 45 42 39 40 36 31 30 27 25 27 27 30 33 36
43 44 46 49 53 55 55 55 56 57 56 55 56 56 56 53 51 48 44 48 54 48 49 53 53 53 55 55 55 60 57 50 47 44 44 38 35 33 30 28 28 32 34 34 33
46 46 47 50 52 55 58 57 56 56 57 56 54 54 55 52 44 50 50 48 49 49 51 51 57 56 61 59 60 62 60 54 49 49 50 44 39 37 34 32 32 31 30 30 32
49 50 50 53 54 55 55 56 56 56 55 55 53 52 51 50 42 44 51 50 47 46 48 49 53 59 66 68 67 65 59 59 54 53 55 50 42 42 38 34 34 31 29 30 33
51 54 57 57 55 56 56 56 56 55 54 52 50 49 50 44 46 45 46 50 52 49 47 53 57 64 72 72 70 68 64 63 59 58 59 56 51 46 39 39 37 34 32 31 31
57 56 57 58 58 55 56 59 61 58 54 49 48 48 47 44 46 46 48 49 51 50 51 56 59 66 72 73 73 71 68 67 62 60 61 61 54 46 43 43 41 37 34 34 34
61 62 62 62 61 58 58 62 64 62 53 47 46 46 46 45 46 48 51 50 49 48 49 51 58 63 71 74 73 73 72 67 66 63 61 65 58 50 48 46 44 43 40 37 38
67 65 63 64 63 61 64 63 63 63 50 48 47 46 42 46 48 47 47 45 44 45 49 52 59 66 71 75 78 74 70 66 69 67 63 67 64 53 52 51 48 47 45 43 41
70 69 65 64 64 65 65 64 64 60 49 48 48 45 45 48 48 44 48 50 50 48 52 53 62 69 70 73 65 67 69 67 70 68 65 67 70 60 54 53 51 49 50 49 46
71 70 68 67 65 66 65 64 63 62 53 48 47 49 46 48 49 51 50 54 53 55 55 59 66 61 64 68 69 67 74 68 67 69 67 67 70 67 60 56 53 52 52 52 49
71 68 66 65 65 66 64 63 64 58 55 51 49 47 45 47 46 49 50 56 59 56 57 63 57 61 66 69 72 71 76 68 67 68 67 68 71 71 64 61 57 56 56 54 53
70 67 64 62 61 63 63 64 62 59 56 57 54 53 44 43 46 47 52 55 52 46 52 61 57 66 65 69 71 73 70 70 61 66 69 68 72 70 68 66 61 58 58 55 52
70 66 60 56 58 61 62 66 61 61 61 55 53 50 46 44 45 44 50 48 43 42 49 53 54 62 68 67 69 71 68 71 66 59 67 73 73 69 70 71 66 62 60 56 54
69 61 53 51 54 59 66 65 60 61 60 55 51 47 45 45 45 48 41 46 40 41 48 49 52 60 62 62 65 64 66 61 66 64 67 72 73 73 68 67 69 67 62 57 52
68 51 44 46 51 57 62 59 60 58 53 49 46 43 46 45 44 44 36 39 41 41 43 46 50 54 61 61 63 54 63 62 61 67 64 61 73 81 68 62 69 66 63 59 54
58 39 43 45 52 58 63 60 59 51 45 43 40 39 44 45 44 41 34 35 35 37 39 48 52 51 60 67 65 64 53 71 63 59 59 61 72 81 72 59 65 66 63 60 58
55 46 42 49 51 58 59 59 51 44 43 39 39 39 38 44 40 34 30 31 32 34 34 44 51 56 58 65 68 72 77 46 71 65 65 54 66 69 72 62 61 57 60 57 56
55 44 44 47 53 56 60 52 44 38 37 40 37 35 37 38 35 32 24 26 32 39 34 43 53 53 45 63 68 69 63 66 61 66 51 65 64 65 68 60 56 50 47 50 50
52 42 42 48 53 57 53 43 39 34 36 37 35 36 36 32 33 30 27 23 30 37 38 42 50 50 37 42 67 69 70 69 73 72 55 41 63 57 54 58 51 47 43 45 44
44 44 44 51 55 52 43 39 39 33 34 34 34 35 33 32 29 30 25 23 22 28 32 43 49 59 39 37 51 67 65 65 55 75 78 61 44 54 54 52 46 46 45 42 46
52 46 51 57 50 42 41 41 39 31 34 32 31 30 30 31 31 29 23 13 12 26 29 33 49 56 44 20 49 59 66 65 63 61 74 70 58 46 49 52 47 41 43 44 42
50 52 57 53 44 41 42 39 42 35 29 28 29 26 29 28 30 29 28 17 15 16 28 34 38 52 49 48 36 59 59 59 73 68 64 66 61 63 49 41 46 48 44 36 36
52 49 44 45 41 37 43 40 37 29 32 30 26 27 29 29 31 28 28 24 22 23 29 28 20 35 48 53 48 56 60 55 60 69 68 61 58 66 60 41 42 36 29 36 35
43 41 40 42 44 42 40 33 31 32 30 28 28 26 28 26 27 28 27 27 22 18 26 41 31 25 36 54 61 36 50 68 62 60 62 59 59 57 59 58 49 39 35 32 33
41 42 39 42 44 41 36 29 36 31 28 31 31 26 26 26 28 28 27 26 27 29 25 33 40 39 29 53 61 39 34 52 62 56 57 62 54 54 53 49 47 45 42 33 31
Wind_Direction
306 304 303 303 301 298 297 296 295 294 293 292 291 292 291 286 274 265 261 251 251 252 253 255 250 248 249 243 243 242 241 236 237 239 243 239 236 227 222 221 218 217 218 220 223
308 304 303 300 301 299 297 296 295 294 293 291 290 288 288 288 279 261 255 253 250 250 253 253 255 253 248 248 242 240 241 236 237 235 239 236 232 223 218 221 220 216 216 219 221
310 307 303 300 298 298 298 298 295 294 293 291 290 287 285 284 277 270 254 252 251 247 250 253 255 255 253 248 247 240 239 240 235 234 232 233 228 221 215 213 213 219 223 224 220
313 307 302 301 302 301 299 298 297 295 292 290 287 285 284 281 276 269 253 250 251 250 247 254 253 256 256 252 248 245 240 236 233 234 233 229 226 223 210 205 205 210 214 214 212
318 313 305 303 300 300 300 300 298 295 292 290 288 285 281 278 276 268 261 254 252 254 254 257 259 260 258 253 247 242 238 235 231 232 234 226 224 222 212 205 205 209 211 209 206
317 314 310 301 301 300 299 298 296 297 293 290 287 283 280 276 271 264 267 260 256 261 264 266 266 263 259 256 245 240 234 231 228 229 233 227 221 221 214 205 207 206 203 205 203
316 310 306 303 299 297 299 302 302 301 297 293 286 282 279 278 270 265 263 262 261 262 268 269 267 260 259 252 241 239 232 227 225 225 230 229 219 214 215 209 207 205 200 201 205
315 313 308 306 306 304 303 301 304 304 302 296 289 284 280 274 269 266 261 261 262 265 265 263 259 252 244 240 235 233 231 225 222 224 227 231 221 217 217 213 209 206 202 201 201
319 321 317 313 309 306 302 301 302 304 301 297 290 286 281 275 269 265 263 263 269 269 269 260 252 246 239 236 233 229 229 226 221 224 224 231 225 221 216 215 211 207 203 204 200
322 320 317 311 306 305 303 300 300 302 301 299 293 290 282 276 268 267 264 268 277 275 269 262 253 240 236 232 229 226 224 225 221 223 223 228 228 218 219 216 212 211 205 204 206
321 319 315 310 305 304 303 301 300 299 300 298 295 289 280 274 274 270 264 264 271 276 270 255 242 237 233 233 230 225 224 222 224 223 223 224 230 221 223 217 214 211 211 207 206
318 316 312 308 304 305 303 301 301 300 294 300 295 287 279 277 278 271 270 270 277 275 264 248 244 243 233 230 229 222 222 221 222 223 224 224 227 228 217 220 215 212 212 211 208
318 314 311 307 303 304 301 300 299 297 294 301 291 287 284 282 276 273 280 283 281 270 258 247 249 238 230 224 225 225 223 217 223 224 225 226 226 225 218 220 217 214 213 212 210
317 316 312 308 302 300 300 299 299 294 294 298 295 293 291 285 286 289 289 285 274 263 249 243 233 228 228 223 223 227 224 221 223 229 225 227 226 224 221 217 219 218 217 216 212
320 317 312 305 298 298 300 297 295 294 301 300 300 297 295 291 289 299 294 282 269 254 238 237 228 227 225 221 221 225 225 226 223 230 231 227 230 219 219 218 216 219 219 218 217
322 318 306 300 295 292 291 293 294 299 301 303 302 302 298 299 304 304 291 273 259 247 236 230 225 221 223 224 221 224 225 226 226 232 237 227 228 226 220 216 218 219 221 221 219
325 317 303 299 290 289 293 294 297 299 301 302 304 304 305 310 308 300 282 264 254 244 235 228 225 224 221 217 215 226 220 228 225 227 238 229 233 225 215 219 220 221 222 222 224
330 316 309 299 283 286 292 295 298 300 301 305 309 314 314 313 310 296 277 260 252 242 236 227 223 220 219 216 215 209 220 218 222 222 228 230 231 228 219 216 224 223 226 223 222
331 324 304 286 286 290 294 296 300 301 303 307 314 315 317 316 309 290 274 258 246 237 238 230 223 212 217 218 216 212 217 210 220 221 225 236 227 232 226 219 221 226 225 227 224
331 317 291 285 287 290 293 298 300 302 304 312 316 316 320 318 311 297 281 261 245 223 231 236 224 220 211 219 216 217 215 224 220 215 231 232 226 229 227 223 225 225 224 225 226
329 299 291 284 288 291 297 301 297 298 308 313 312 311 316 316 312 300 292 287 240 223 229 230 231 207 213 217 217 212 215 218 222 216 217 218 228 223 227 224 225 224 223 220 220
315 294 287 282 288 294 302 304 295 306 308 306 303 306 314 312 313 303 289 286 239 228 233 224 228 212 205 204 209 219 221 219 220 221 223 230 216 219 222 216 222 225 225 222 225
314 293 283 284 293 301 300 302 288 295 297 297 297 300 307 313 303 306 286 261 252 241 235 230 229 217 198 193 197 212 221 222 225 222 223 228 215 214 221 216 218 219 220 226 229
303 287 285 288 296 301 307 301 294 292 286 291 290 298 302 305 302 303 292 260 216 227 241 237 228 229 233 231 195 198 206 215 224 224 220 227 216 218 221 221 221 225 221 222 223
305 293 295 295 298 296 297 293 295 295 288 287 284 296 299 298 304 295 296 273 248 230 231 237 229 232 236 232 223 193 208 212 218 223 222 222 214 221 221 220 216 215 209 217 219
303 293 293 293 291 297 293 294 297 294 284 284 285 296 301 292 296 284 285 276 255 249 244 238 222 224 228 232 230 213 195 203 214 223 221 216 211 218 221 225 220 216 207 203 203
287 294 293 287 285 287 288 301 291 289 284 289 283 294 292 292 290 288 276 272 261 257 257 245 242 234 224 229 224 213 208 199 208 217 219 220 205 217 216 217 217 214 214 216 214